Regional Weather Roundup
Issued by NWS

Home | Current Version | Previous Version | Graphics & Text | Print | Product List | Glossary On
Versions: 1 2 3 4 5 6 7 8 9 10 11 12 13 14 15 16 17 18 19 20 21 22 23 24 25 26 27 28 29 30 31 32 33 34 35 36 37 38 39 40 41 42 43 44 45 46 47 48 49 50
000
ASUS43 KLSX 270407
RWRMO

WEATHER SUMMARY FOR MISSOURI
NATIONAL WEATHER SERVICE SPRINGFIELD MO
1000 PM CST SUN FEB 26 2017

NOTE: "FAIR" INDICATES FEW OR NO CLOUDS BELOW 12,000 FEET WITH NO
       SIGNIFICANT WEATHER AND/OR OBSTRUCTIONS TO VISIBILITY.
       CURRENT SKY AND/OR WEATHER CONDITIONS ARE NOT AVAILABLE FOR
       CHILLICOTHE AND FARMINGTON.

MOZ001>031-035>038-043-044-053-054-270500-
...NORTHERN AND WESTERN MISSOURI...

CITY           SKY/WX    TMP DP  RH WIND       PRES   REMARKS
KANSAS CTY INT FAIR      36  34  92 S10       30.03R WCI  28
KANSAS C DTWN  FAIR      38  35  89 S8        30.04S
LEE`S SUMMIT   FAIR      37  36  96 SE8       30.04S
ST JOSEPH      FAIR      35  26  69 NW6       30.03R
CHILLICOTHE      N/A     38  33  82 S9        30.05R
KIRKSVILLE     FAIR      35  31  85 S7        30.06R WCI  29

$$
MOZ066>068-077>081-088>096-101>105-270500-
...SOUTHWEST MISSOURI...

CITY           SKY/WX    TMP DP  RH WIND       PRES   REMARKS
SPRINGFIELD    CLOUDY    44  28  53 SE13      30.02S
JOPLIN         FAIR      35  32  88 N9        30.03R WCI  28
BRANSON        CLOUDY    45  28  53 CALM      30.05R

$$
MOZ032>034-039>042-045>050-055>058-069>072-270500-
...CENTRAL MISSOURI...

CITY           SKY/WX    TMP DP  RH WIND       PRES   REMARKS
COLUMBIA       CLOUDY    38  36  92 S9        30.08S
JEFFERSON CITY CLOUDY    39  36  89 E6        30.10S
ROLLA          CLOUDY    37  36  96 E7        30.07S
SEDALIA        CLOUDY    39  35  86 S9        30.07S
WHITEMAN AFB   FAIR      38  38 100 NW3       30.05S
WARRENSBURG    MOCLDY    36  34  93 SE6       30.06R
OSAGE BEACH    CLOUDY    38  36  92 E6        30.08S

$$
MOZ051-052-059>065-270500-
...EAST CENTRAL MISSOURI...

CITY           SKY/WX    TMP DP  RH WIND       PRES   REMARKS
ST LOUIS INTL  CLOUDY    43  33  68 S8        30.14R
SPIRIT OF STL  CLOUDY    41  35  79 CALM      30.12F
ST CHARLES     CLOUDY    41  35  79 S6        30.13S

$$
MOZ072>076-082>087-097>100-106>115-270500-
...SOUTH CENTRAL AND SOUTHEAST MISSOURI...

CITY           SKY/WX    TMP DP  RH WIND       PRES   REMARKS
CAPE GIRARDEAU CLOUDY    46  34  62 S6        30.14R
FARMINGTON     CLOUDY    42  32  67 E3        30.12R
POPLAR BLUFF   CLOUDY    46  35  65 SE6       30.13R
WEST PLAINS    CLOUDY    45  24  43 E5        30.08S

$$



USA.gov is the U.S. government's official web portal to all federal, state and local government web resources and services.